Helicity
73 144 287 343 345 340 348 421 563 631 497 447 475 508 558 661 652 674 643 605 585 557 510 494 360 375 374 369 314 238 184 115 114 95 102 93 89 78 80 101 92 98 112
47 19 198 242 298 326 311 366 592 486 430 438 493 534 592 653 692 753 813 724 665 623 603 563 387 342 331 265 215 157 167 86 80 75 81 72 71 76 85 80 86 86 104
23 99 172 167 227 275 329 387 552 475 455 468 535 555 610 692 851 933 1025 1005 474 520 341 448 422 321 349 256 126 222 163 78 73 72 64 77 73 72 74 72 71 82 89
-42 220 184 156 261 277 388 445 438 447 438 498 528 558 631 796 876 1017 1104 869 618 630 730 561 454 498 406 153 245 234 131 71 71 68 60 72 69 71 66 67 84 84 107
11 113 265 272 310 402 405 379 441 389 402 497 580 603 716 824 964 1028 951 879 876 919 781 718 589 414 353 231 196 183 80 68 76 71 60 73 69 58 48 71 95 106 122
67 -7 121 349 421 374 364 376 371 367 461 585 597 668 728 755 897 1102 1065 978 966 797 844 747 546 519 275 215 187 92 40 59 72 70 66 70 62 54 57 79 100 91 85
22 -26 29 189 295 348 350 346 356 455 526 546 592 646 711 828 937 1055 1036 937 802 913 930 706 485 363 217 186 169 48 41 53 47 55 66 59 60 54 63 77 100 98 104
98 -38 -68 192 298 282 288 350 414 473 505 550 591 661 773 804 942 1104 1087 1009 791 865 680 391 424 277 227 198 83 36 50 55 43 49 41 36 47 61 82 118 126 130 123
93 87 -12 31 234 293 308 366 417 489 538 568 650 728 758 870 965 988 1015 816 841 699 450 372 314 227 200 82 56 50 50 51 51 41 26 26 31 53 96 111 100 99 97
40 161 77 47 -9 355 455 444 448 477 578 673 692 663 826 896 920 782 958 931 840 634 438 317 187 183 145 26 33 40 53 50 57 49 43 47 54 58 81 100 94 100 95
20 33 146 218 291 320 500 534 525 633 742 720 738 760 864 883 748 892 909 818 633 479 316 226 161 181 56 12 18 38 43 52 57 55 50 54 59 67 83 85 78 86 96
8 6 140 260 357 444 583 618 665 765 755 739 803 899 900 862 731 782 758 580 379 351 265 198 174 72 18 18 38 39 64 63 57 54 56 69 62 59 60 68 67 85 109
38 -2 161 247 326 434 676 652 663 699 768 802 836 924 928 837 808 744 614 405 347 330 209 167 132 35 43 49 56 63 71 68 56 50 51 57 53 50 51 57 69 78 110
5 97 293 339 403 473 496 507 664 746 796 857 921 1012 1046 1054 968 716 428 354 297 320 220 195 187 88 31 38 45 58 64 61 50 46 39 54 54 56 53 54 54 64 77
56 236 393 445 488 483 497 508 573 638 758 871 953 1167 1338 1123 668 327 342 360 293 198 209 283 190 66 16 29 36 43 56 59 56 40 42 52 49 48 53 48 43 61 66
124 236 383 521 515 499 568 647 621 690 780 873 1064 1156 752 400 349 343 363 251 228 241 268 263 127 35 23 28 34 41 60 60 48 39 43 49 47 43 41 39 43 56 51
145 234 381 453 541 589 623 672 751 670 659 747 748 563 406 311 350 362 287 250 240 265 317 150 57 30 37 39 39 50 53 44 27 42 44 45 43 42 32 35 49 58 53
233 297 342 458 535 575 643 718 712 630 667 631 454 378 315 316 363 362 336 365 327 286 252 93 31 37 48 37 50 53 51 46 44 46 50 46 48 38 34 44 52 52 42
279 332 369 450 488 575 593 587 567 479 421 394 402 329 294 365 390 335 293 306 278 191 68 43 32 49 38 47 57 69 60 61 60 55 44 53 47 45 45 46 50 44 37
285 361 409 474 524 498 437 455 416 361 338 343 342 374 416 482 450 402 338 315 231 84 48 31 27 42 57 67 76 74 78 75 69 64 61 52 52 59 57 53 51 51 41
304 383 417 404 405 360 325 330 318 312 344 376 395 363 393 409 357 247 177 108 73 55 22 27 52 64 70 81 82 78 80 78 76 77 75 71 80 81 71 63 58 51 51
210 197 193 203 194 206 218 226 253 281 288 324 363 374 307 229 191 173 125 63 13 25 54 69 59 50 58 74 80 83 79 91 99 94 87 94 99 102 91 76 70 58 54
88 107 127 132 142 168 188 193 200 217 239 238 232 244 267 242 160 86 45 33 42 54 63 61 61 58 52 57 77 103 105 100 106 114 114 119 126 117 100 90 73 64 63
152 164 170 172 175 178 176 174 172 185 193 190 170 143 110 77 57 47 56 71 84 87 94 96 97 95 98 92 100 128 139 141 151 132 129 142 134 123 118 110 94 64 67
147 169 198 209 210 207 209 209 198 175 152 125 106 87 75 67 72 83 94 105 116 124 127 126 129 118 100 100 122 126 150 177 190 178 173 158 140 127 120 115 110 84 74
162 168 167 164 173 168 165 168 181 186 192 192 190 196 188 195 195 199 183 164 147 134 121 121 117 117 113 109 114 132 153 180 219 210 209 192 166 151 138 116 109 102 103
Wind_Speed
100 82 71 63 61 63 61 54 52 46 43 39 34 34 32 24 22 23 26 28 29 30 29 28 29 29 31 35 42 47 53 46 50 56 55 63 67 74 74 70 73 76 73
98 84 74 68 63 60 56 54 48 44 41 38 34 32 30 24 21 23 25 28 26 27 27 21 25 26 35 38 43 50 52 49 52 62 61 64 66 69 71 72 76 75 75
91 73 69 71 70 62 54 51 47 43 40 36 33 31 29 24 19 19 20 24 28 25 27 24 26 32 42 41 47 53 45 46 50 57 63 61 64 69 74 73 77 77 74
83 70 64 65 71 62 52 50 49 43 38 35 32 29 27 22 18 14 15 16 16 19 19 23 31 34 43 41 48 38 39 43 49 53 59 62 65 69 70 80 84 79 78
82 73 64 58 58 54 52 54 46 42 38 34 31 26 23 23 22 17 16 14 17 17 24 29 30 31 38 43 34 30 32 41 45 51 58 60 66 74 81 80 80 82 77
82 75 65 54 51 55 52 49 44 43 39 32 32 28 24 24 21 18 17 13 14 19 24 27 26 27 31 23 32 28 29 39 43 47 55 63 66 73 75 78 80 88 92
86 73 63 60 57 53 47 46 43 41 38 36 32 27 24 24 21 16 15 16 16 18 19 19 28 28 19 20 26 28 31 35 36 43 51 58 65 71 73 75 76 77 81
89 79 66 59 59 53 50 47 42 39 37 34 29 27 25 23 21 15 12 14 16 18 18 21 21 16 19 19 23 25 28 35 38 42 47 53 58 61 62 64 67 65 63
96 95 86 69 61 58 53 48 44 39 35 35 32 28 27 24 23 19 12 13 17 16 17 15 13 15 16 16 21 24 28 36 42 47 48 49 56 59 61 65 72 75 76
101 106 93 77 70 66 61 52 44 42 39 35 32 28 27 25 23 19 12 12 12 12 11 9 10 12 9 14 15 18 26 36 44 51 51 52 54 53 58 63 65 72 74
104 105 92 87 71 69 62 55 52 44 36 32 30 28 24 23 26 15 13 12 12 11 11 9 9 10 12 15 16 18 25 36 41 48 50 52 52 53 59 65 62 58 62
108 106 89 70 63 50 55 53 44 36 34 32 29 26 22 20 20 16 13 12 10 11 11 7 9 9 14 14 16 19 26 34 40 47 50 53 54 55 59 64 60 57 55
106 101 80 65 59 53 42 39 41 35 31 29 28 26 24 22 20 16 12 9 7 7 6 6 6 9 12 14 16 21 28 34 40 46 49 53 53 52 55 60 58 57 58
99 85 64 55 54 51 47 38 33 33 34 33 32 31 27 25 21 17 12 9 9 9 6 5 5 9 12 15 18 23 28 33 38 43 47 48 51 54 57 58 59 62 61
78 62 46 39 46 44 41 41 39 39 38 39 36 33 30 26 21 18 17 13 11 9 5 6 7 8 11 14 18 24 27 32 38 42 46 51 54 56 58 58 58 58 61
62 53 43 34 31 30 33 32 30 30 28 26 23 21 20 18 18 18 16 13 10 9 5 10 7 7 10 12 18 24 28 33 37 41 45 50 53 56 56 58 58 54 61
52 40 37 32 26 24 26 26 25 15 15 18 20 22 19 18 20 16 16 12 8 5 11 8 7 7 10 15 20 23 27 31 32 38 43 48 51 53 55 58 57 52 58
46 43 38 32 23 23 23 23 18 19 19 16 16 16 17 21 21 19 15 8 9 12 11 8 8 9 14 18 19 22 24 28 32 37 41 46 50 52 54 57 52 52 57
32 32 21 20 17 14 12 13 15 16 15 14 12 15 20 21 18 16 13 12 12 11 9 10 12 15 15 15 17 21 23 27 31 35 39 42 47 50 53 53 48 50 55
30 23 17 13 12 9 11 10 10 10 9 12 13 15 17 15 13 13 12 11 9 9 8 10 13 14 14 15 19 21 23 26 28 33 37 40 43 46 48 49 47 47 51
27 23 14 9 6 3 2 2 3 6 8 8 9 10 11 8 10 11 11 11 12 10 8 10 11 12 14 16 19 22 23 26 30 32 35 38 41 43 43 44 44 44 45
25 21 18 14 11 9 6 2 4 4 5 7 4 4 5 6 6 8 10 11 9 10 12 13 13 15 17 17 18 21 23 27 29 32 35 36 38 39 40 41 41 41 42
30 27 23 20 19 17 14 10 10 7 5 3 3 3 4 9 10 12 12 11 12 15 15 15 17 20 22 22 23 26 29 31 33 32 35 36 36 38 40 39 39 39 40
40 39 36 33 28 24 20 18 15 12 9 8 7 7 9 11 11 13 14 16 17 19 19 21 26 29 31 34 34 33 33 34 33 33 32 35 36 38 40 41 38 37 38
41 37 35 31 28 25 23 22 20 19 17 15 13 14 16 17 21 23 23 24 27 30 32 34 34 38 42 46 47 44 40 36 34 33 33 34 37 39 42 43 42 40 39
42 39 36 35 33 31 30 27 26 25 24 23 23 23 25 27 29 31 35 38 41 43 45 46 47 48 49 50 50 49 46 42 39 35 35 36 39 41 42 45 45 43 44
Wind_Direction
293 285 275 268 262 261 259 253 254 258 254 254 259 258 260 264 249 251 253 254 259 268 279 289 299 311 317 321 324 326 325 328 325 330 336 338 341 341 343 346 346 346 347
295 286 276 271 266 259 255 254 253 257 256 257 260 260 263 259 255 257 265 269 253 266 272 282 292 309 316 321 324 327 321 323 325 327 334 339 342 345 345 346 347 350 350
301 288 278 272 265 262 258 257 255 255 251 253 255 254 256 251 261 273 285 279 273 290 277 282 287 301 311 315 320 323 321 324 327 330 334 341 344 346 347 349 351 351 352
303 294 283 275 266 264 261 258 259 253 251 254 258 255 253 250 252 247 265 265 262 279 291 294 300 313 308 311 322 325 323 326 330 335 337 341 344 348 350 350 350 354 353
299 297 286 279 268 264 262 260 256 252 251 252 255 251 245 243 242 241 251 251 257 282 293 304 304 314 323 315 319 327 329 329 335 338 339 344 347 349 350 352 353 353 357
296 292 291 278 269 263 261 256 253 253 254 252 250 247 247 253 234 245 237 233 244 269 290 302 309 322 327 322 319 328 334 331 337 341 342 343 347 349 352 354 355 354 355
290 289 294 285 271 266 260 256 255 255 252 253 252 247 248 246 225 232 238 249 262 286 291 296 305 321 325 325 326 330 333 336 343 344 346 347 347 350 354 356 357 358 357
290 283 288 290 278 269 263 260 257 257 254 252 250 247 248 237 218 226 246 257 278 287 287 298 310 316 324 329 331 335 339 340 343 345 346 347 351 355 0 0 359 0 3
286 280 276 276 283 274 265 260 258 255 256 256 251 246 235 228 216 214 233 254 276 282 293 305 313 323 330 336 336 338 342 339 339 342 346 354 355 0 4 3 2 3 4
291 282 280 276 274 276 265 257 254 255 256 255 253 242 235 228 218 212 239 265 270 277 295 305 312 318 338 343 347 353 348 338 339 341 347 354 0 6 7 7 6 6 7
293 287 278 270 267 266 263 263 253 254 253 250 249 249 229 214 207 220 248 261 262 265 269 287 311 317 327 331 344 352 348 337 343 347 353 358 5 8 8 7 9 12 11
292 288 277 272 266 265 259 257 255 251 248 246 244 244 239 217 206 228 244 257 246 253 268 301 314 323 328 340 342 353 345 341 346 350 354 358 3 8 7 8 11 14 14
294 289 279 269 263 257 248 250 251 247 244 243 235 233 230 232 236 232 244 230 216 255 280 301 315 330 340 350 351 354 341 344 348 350 355 358 6 9 9 10 15 16 17
294 292 283 269 261 253 254 250 245 242 241 241 240 236 236 240 237 241 238 222 241 270 282 304 332 337 340 343 347 344 342 348 352 353 357 7 9 10 11 13 14 15 18
301 301 288 271 258 252 256 256 254 252 243 239 240 235 232 229 226 220 213 212 228 250 267 310 328 326 334 337 341 336 346 351 352 358 1 4 5 7 11 13 15 18 18
303 305 285 269 259 249 251 260 265 257 253 249 237 223 206 208 209 191 207 192 178 175 269 291 297 314 322 330 330 334 345 349 354 359 5 5 6 7 9 11 15 20 18
305 310 288 270 253 249 246 243 246 257 238 216 198 189 213 198 175 186 189 181 188 202 287 277 284 300 314 317 323 337 346 355 10 4 5 5 6 7 8 9 14 19 17
308 297 289 268 259 251 246 243 233 220 222 227 197 199 190 173 170 169 183 199 248 279 283 258 277 294 303 309 325 336 349 360 3 3 4 4 5 4 5 6 14 17 13
315 317 303 280 266 237 225 223 229 230 229 218 196 157 163 159 167 182 193 245 250 256 262 266 284 293 306 320 330 336 345 348 352 358 360 3 1 1 1 4 12 13 8
324 330 318 291 259 232 232 229 228 223 199 184 181 177 164 170 213 219 244 252 252 257 249 273 287 302 314 321 326 332 339 343 347 347 352 354 357 0 1 2 5 8 3
349 346 339 318 342 351 270 251 200 180 168 173 183 191 164 198 206 214 227 237 257 253 256 284 296 309 314 318 322 327 331 332 335 338 341 344 349 354 357 357 360 0 359
15 16 14 13 15 13 7 48 105 124 144 148 173 213 223 225 221 239 251 253 252 274 290 296 302 308 308 308 311 317 323 325 328 330 331 336 342 345 347 351 351 351 348
29 31 30 32 38 45 45 44 53 66 71 73 102 126 271 281 282 276 274 275 278 287 293 294 298 303 307 309 309 307 308 313 317 321 324 328 333 336 338 340 340 339 336
40 42 43 43 42 39 38 42 40 35 20 358 339 317 303 302 296 294 294 293 294 296 297 295 296 297 300 304 305 302 299 302 309 311 317 322 324 326 328 329 329 328 324
30 29 27 22 18 13 8 3 357 355 353 345 338 329 319 315 308 305 302 301 300 301 300 300 300 299 301 302 300 298 295 292 296 300 305 311 315 317 319 320 319 315 314
22 19 17 15 14 12 11 5 2 359 356 350 340 334 324 317 313 311 308 304 302 301 301 300 299 299 300 302 301 298 295 289 286 287 294 299 303 307 311 311 310 307 304